TimeEET,TemperatureF,Dew PointF,Humidity,Sea Level PressureIn,VisibilityMPH,Wind Direction,Wind SpeedMPH,Gust SpeedMPH,PrecipitationIn,Events,Conditions,WindDirDegrees,DateUTC
12:00 AM,60.8,37.4,42,30.04,-9999.0,NW,6.9,-,N/A,,Clear,310,2013-12-26 22:00:00
1:00 AM,60.8,37.4,42,30.04,-9999.0,NW,9.2,-,N/A,,Clear,310,2013-12-26 23:00:00
2:00 AM,60,38,32,30.05,6,NW,9.2,,,,,320,2013-12-27 00:00:00
2:00 AM,60.8,37.4,42,30.04,-9999.0,NW,9.2,-,N/A,,Clear,320,2013-12-27 00:00:00
3:00 AM,59.0,37.4,45,30.04,-9999.0,NW,9.2,-,N/A,,Clear,310,2013-12-27 01:00:00
4:00 AM,60.8,37.4,42,30.04,-9999.0,NW,11.5,-,N/A,,Clear,320,2013-12-27 02:00:00
5:00 AM,60,40,35,30.04,6,NW,11.5,,,,,310,2013-12-27 03:00:00
5:00 AM,60.8,39.2,45,30.04,-9999.0,NW,11.5,-,N/A,,Clear,310,2013-12-27 03:00:00
6:00 AM,59.0,42.8,55,30.04,-9999.0,WNW,13.8,-,N/A,,Clear,300,2013-12-27 04:00:00
7:00 AM,59.0,42.8,55,30.06,-9999.0,WNW,13.8,-,N/A,,Clear,300,2013-12-27 05:00:00
8:00 AM,60,43,43,30.08,6,NW,11.5,,,,,310,2013-12-27 06:00:00
8:00 AM,60.8,42.8,52,30.06,-9999.0,NW,11.5,-,N/A,,Clear,310,2013-12-27 06:00:00
9:00 AM,66.2,42.8,43,30.09,-9999.0,WNW,9.2,-,N/A,,Clear,300,2013-12-27 07:00:00
10:00 AM,68.0,48.2,49,30.06,-9999.0,WNW,10.4,-,N/A,,Clear,300,2013-12-27 08:00:00
11:00 AM,71,48,32,30.06,6,NNW,9.2,,,,,330,2013-12-27 09:00:00
11:00 AM,71.6,48.2,43,30.04,-9999.0,NNW,9.2,-,N/A,,Clear,330,2013-12-27 09:00:00
12:00 PM,75.2,50.0,41,30.01,-9999.0,North,6.9,-,N/A,,Clear,360,2013-12-27 10:00:00
1:00 PM,77.0,50.0,39,29.98,-9999.0,North,4.6,-,N/A,,Clear,360,2013-12-27 11:00:00
2:00 PM,82,53,26,29.98,6,NE,4.6,,,,,50,2013-12-27 12:00:00
2:00 PM,82.4,51.8,35,29.98,-9999.0,NE,4.6,-,N/A,,Clear,50,2013-12-27 12:00:00
3:00 PM,82.4,50.0,32,29.98,-9999.0,ENE,4.6,-,N/A,,Clear,60,2013-12-27 13:00:00
4:00 PM,78.8,53.6,42,29.95,-9999.0,ENE,3.5,-,N/A,,Clear,60,2013-12-27 14:00:00
5:00 PM,72,55,44,29.98,6,ENE,3.5,,,,,60,2013-12-27 15:00:00
5:00 PM,73.4,55.4,53,29.98,-9999.0,ENE,3.5,-,N/A,,Clear,60,2013-12-27 15:00:00
6:00 PM,68.0,53.6,60,29.98,-9999.0,Calm,Calm,-,N/A,,Clear,0,2013-12-27 16:00:00
7:00 PM,66.2,55.4,68,30.01,-9999.0,Calm,Calm,-,N/A,,Clear,0,2013-12-27 17:00:00
8:00 PM,64,54,63,30.02,6,Calm,Calm,,,,,,2013-12-27 18:00:00
8:00 PM,64.4,53.6,68,30.01,-9999.0,Calm,Calm,-,N/A,,Clear,0,2013-12-27 18:00:00
9:00 PM,62.6,55.4,77,30.01,-9999.0,Calm,Calm,-,N/A,,Clear,0,2013-12-27 19:00:00
10:00 PM,60.8,55.4,82,30.01,-9999.0,Calm,Calm,-,N/A,,Clear,0,2013-12-27 20:00:00
11:00 PM,60.8,55.4,82,30.01,-9999.0,Calm,Calm,-,N/A,,Clear,0,2013-12-27 21:00:00